Showing default

COSMOS 2488, 39483

Orbit data source: Space-Track

COSMOS 2488, 39483 is a payload satellite owned by VVKO (CIS) in LEO that was launched on Wed, 25 Dec 2013 UTC via an ROKOT launch vehicle from the Plesetsk Missile And Space Complex (PKMTR). Payload-class satellites include a variety of spacecraft equipped with specific instruments for various scientific and technological missions. These include communications satellites like Starlink; space stations such as the ISS; scientific satellites like the Hubble; Earth observation satellites from companies like Planet Labs, Umbra, and HawkEye 360; GPS; miniature CubeSats for education and research; and military/defense satellites.

Loading next visibility...
Identifier
39483, 2013-076A
Orbit
LEO
Country
Flag of CISCIS
Related business
Manufacturer
Resehetnev ISS
Mission
Operational Civil Communications
Bus & Motor
STRELA-3M, Unknown motor
Mass
280 kg wet, 280 kg dry
Launch date (UTC)
2013-12-25 (13 years ago)
Launch vehicle
ROKOT
Launch site
Plesetsk Missile And Space Complex (PKMTR)
Object type
Payload
Rocket body
Debris
Shape & HBR
Cyl + 1 Ant, 3.5 m
Radar Cross Section
1.583 m², Large (>1 m²)

Expand to show TLE details & history
Last TLE update: 7 hours ago

TLE from 7 hours ago
0 COSMOS 2488
1 39483U 13076A   26255.93910799  .00000092  00000-0  59489-3 0  9990
2 39483  82.4816 114.0255 0018524 266.1346  93.7616 12.42908265576799
Epoch: 2026-09-12T22:32Z
TLE epoch observation values (Epoch: 2026-09-12T22:32:18.930Z)
Latitude
0.00001°
Longitude
144.00571°
Altitude
1,497.982 km
Speed
7.115 km/s
True Right ascension
07h 36m 06s
True Declination
0° 00' 00"
Sunlit
Object was in daylight at epoch
Visualization orbit readout
Latitude
Unknown
Longitude
Unknown
Altitude
Unknown
Speed
Unknown
Apparent Right ascension
Unknown
Apparent Declination
Unknown
Sunlit
N/A
Visualization observer readout
Local Sidereal Time
21:38:40
Azimuth
Unknown
Elevation
Unknown
Doppler factor
Unknown
Orbital elements
Apogee altitude
1,506.229 km
Perigee altitude
1,477.073 km
Semi-major axis
7,869.788 km
Eccentricity
0.00185
Inclination
82.4816°
RAAN
114.0255°
Arg. of periapsis
266.1346°
True anomaly
93.97338°
Mean anomaly
93.7616°
Eccentric anomaly
93.86749°
Mean motion
3.10884 °/min
Orbital period
115.8 mins
BSTAR
0.00059489
Loading maneuver chart data...
Computing Atmospheric mass density...
Loading historical data...
Loading historical data...
Loading historical data...
Loading historical data...
Loading historical data...
Loading historical data...
Loading historical data...

Documentation

Showing up to 5 results
|